Regional Weather Roundup
Issued by NWS

Home | Current Version | Previous Version | Graphics & Text | Print | Product List | Glossary On
Versions: 1 2 3 4 5 6 7 8 9 10 11 12 13 14 15 16 17 18 19 20 21 22 23 24 25 26 27 28 29 30 31 32 33 34 35 36 37 38 39 40 41 42 43 44 45 46 47 48 49 50
000
ASUS43 KDMX 020707
RWRIA

WEATHER ROUNDUP FOR IOWA
NATIONAL WEATHER SERVICE DES MOINES IA
200 AM CDT SAT AUG 02 2014

NOTE: "FAIR" INDICATES FEW OR NO CLOUDS BELOW 12,000 FEET WITH NO
SIGNIFICANT WEATHER AND/OR OBSTRUCTIONS TO VISIBILITY.

* - THESE STATIONS ARE NOT NWS STATIONS...THUS NOT UNDER NWS
QUALITY CONTROL.  THEY ALSO DO NOT REPORT WEATHER SUCH
AS PRECIPITATION OR FOG.

IAZ001>003-012>014-020>022-031>034-043>046-020800-
   NORTHWEST IOWA

CITY           SKY/WX    TMP DP  RH WIND       PRES   REMARKS
CARROLL *      PTCLDY    57  55  94 CALM      30.13F
CHEROKEE *     PTCLDY    59  59 100 CALM      30.14R
DENISON *      CLEAR     59  59 100 CALM      30.12S
LE MARS *      CLEAR     57  57 100 CALM      30.14R
ORANGE CITY *  CLEAR     66  55  68 CALM      30.14R
SHELDON *      CLEAR     57  55  94 E3        30.12F
SIOUX CITY     MOCLDY    62  60  93 CALM      30.13R
SPENCER        CLEAR     60  56  86 N3        30.13S
STORM LAKE *   CLEAR     61  61 100 S6        30.14S
$$

IAZ055>058-069>071-079>083-090>094-020800-
   SOUTHWEST IOWA

CITY           SKY/WX    TMP DP  RH WIND       PRES   REMARKS
ATLANTIC *     PTCLDY    59  59 100 N5        30.12S
AUDUBON *      CLEAR     59  57  94 CALM      30.15S
CLARINDA *     CLEAR     63  63 100 NW5       30.13S FOG
COUNCIL BLFS * CLEAR     68  64  88 CALM      30.11F
CRESTON *      CLEAR     63  61  94 CALM      30.13F
HARLAN  *      CLEAR     59  59 100 CALM      30.16F FOG
LAMONI         CLEAR     68  62  81 E3        30.12F
RED OAK *      CLEAR     63  63 100 CALM      30.12S
SHENANDOAH *   FOG       63  63 100 CALM      30.12S VSB 3/4
$$

IAZ047>049-059>061-072>074-084-020800-
   CENTRAL IOWA

CITY           SKY/WX    TMP DP  RH WIND       PRES   REMARKS
AMES           CLEAR     60  58  92 CALM      30.12F
ANKENY *       CLEAR     61  59  94 CALM      30.12F
CHARITON *     CLEAR     63  61  94 CALM      30.12F
DES MOINES     CLEAR     69  60  73 CALM      30.11F
GRINNELL*      CLEAR     61  59  94 CALM      30.12S
KNOXVILLE *    CLEAR     64  61  88 CALM      30.11S
MARSHALLTOWN   CLEAR     63  60  90 CALM      30.11F
PELLA *        CLEAR     63  61  94 CALM      30.13S
PERRY *          N/A     61  59  94 CALM      30.13S
$$

IAZ004>006-015-016-023>025-035-036-020800-
   NORTH CENTRAL IOWA

CITY           SKY/WX    TMP DP  RH WIND       PRES   REMARKS
ALGONA *       CLEAR     64  61  88 SW7       30.13S
CLARION *      PTCLDY    61  59  94 S5        30.13S
ESTHERVILLE    CLEAR     58  57  97 CALM      30.13S
FORT DODGE *   CLEAR     61  57  88 CALM      30.14S
MASON CITY     CLEAR     58  57  97 CALM      30.14S
FOREST CITY *  MOCLDY    59  59 100 CALM      30.13S
IOWA FALLS *     N/A     63  59  88 W5        30.14S
$$

IAZ007>011-017>019-026>030-037>042-050>054-066-020800-
   NORTHEAST IOWA

CITY           SKY/WX    TMP DP  RH WIND       PRES   REMARKS
CEDAR RAPIDS   CLEAR     64  62  93 SW5       30.10S
CHARLES CITY * CLEAR     61  57  88 CALM      30.13S
CLINTON *      PTCLDY    61  57  88 SW3       30.13S
DECORAH *      CLOUDY    63  57  82 S5        30.11F
DUBUQUE        CLEAR     60  59  96 SW5       30.11F
MONTICELLO *   CLEAR     61  59  94 CALM      30.11S
OELWEIN *      CLEAR     61  59  94 SE5       30.13S
WATERLOO       CLEAR     61  59  93 CALM      30.11R
$$

IAZ064-065-067-068-078-020800-
   EAST CENTRAL IOWA

CITY           SKY/WX    TMP DP  RH WIND       PRES   REMARKS
DAVENPORT      CLEAR     60  58  92 CALM      30.11S
IOWA CITY      CLEAR     64  62  93 CALM      30.12R
MT. PLEASANT * CLEAR     61  61 100 W3        30.10S
MUSCATINE *    CLEAR     63  61  94 CALM      30.10S
QUAD CITIES    CLEAR     62  60  93 CALM      30.09F
$$

IAZ062-063-075>077-085>089-095>099-020800-
   SOUTHEAST IOWA

CITY           SKY/WX    TMP DP  RH WIND       PRES   REMARKS
BURLINGTON     CLEAR     62  60  93 CALM      30.09F
FAIRFIELD *    CLEAR     63  61  94 W5        30.11S
FORT MADISON * CLEAR     63  61  94 CALM      30.11R
KEOKUK *       CLEAR     61  59  94 CALM      30.10R
OSKALOOSA *      N/A     63  61  94 W5        30.11F
CENTERVILLE *  CLEAR     59  59 100 CALM      30.13S
OTTUMWA        CLEAR     63  61  93 SW3       30.11S
WASHINGTON *   CLEAR     63  61  94 W5        30.11R
$$

ABBREVIATIONS USED IN REMARKS
   TC - TEMPERATURES IN CELSIUS
  WCI - WIND CHILL INDEX
   HX - HEAT INDEX
  VSB - VISIBILITY
$$



USA.gov is the U.S. government's official web portal to all federal, state and local government web resources and services.